LogoCoinalyze
    Ad-Free Version Hauptseite Märkte Finanzierungsraten
    Futures-Daten
    • Aggregierte Daten (Coins)
    • Einzelne Charts
    • Globale Charts
    Preisalarme
    TA
    Bitcoin Ethereum BNB Ripple Tron ZCash Dogecoin Monero Chainlink UNUS SED LEO Cardano Stellar Lumens Bitcoin Cash Litecoin Hedera Cronos Polkadot Ethereum Classic Algorand Cosmos Quant Dash VeChain Bitcoin SV BitTorrent Terra Decred Tezos Iota The Graph THETA Decentraland NEO Chiliz MultiversX Horizen Golem Basic Attention Token Qtum DigiByte 0x Beam RIF Token FTX Token Holo FUNToken Zilliqa Ontology aelf Nano Enjin Coin Ravencoin Mask Network Verge Siacoin Status WINk Waves IoTeX iExec RLC Power Ledger Steem Kyber Network Crystal Lisk Ark WOO Network Ardor IOST WAX Icon Storj Wanchain Loopring Bitcoin Diamond Augur AdEx Bitcoin Gold OmiseGO NEM MonaCoin BitShares Ren Komodo V Systems Nuls Mithril SOLVE EOS Aion Nebulas Maker HedgeTrade Bread Fetch.ai TomoChain Polygon Fantom Waltonchain GXChain Bytom Metaverse ETP MaidSafeCoin QASH
    Bestellen nach:
    Mehr
    • API
    • Kerzenformationen
    • Spenden
    • Kontakt
    • Sitemap
    • Privacy Policy
    • Disclaimer
    • Theme:
    Deutsch
    • English
    • Français
    • Русский
    • Türkçe
    • Nederlands
    • Português (BR)
    • Español
    • 한국어
    • 简体中文
    • 日本語
     
    Anmelden / Registrieren
    Markets/ Pepe/ PEPE zu BRL/ PEPEBRL Binance
    Trades
    WL
    Chat
    Stat
    Neuigkeiten
    ⦷
    AAA
    0.00001887 14436190.00000000 22:39:07
    0.00001887 529942.00000000 22:39:07
    0.00001887 529942.00000000 22:39:07
    0.00001887 529942.00000000 22:39:07
    0.00001887 529942.00000000 22:39:07
    0.00001887 529942.00000000 22:39:07
    0.00001889 8092984.00000000 22:36:44
    0.00001887 16847826.00000000 22:36:02
    0.00001887 238074.00000000 22:36:02
    0.00001887 16847826.00000000 22:36:02
    0.00001886 1240516.00000000 22:34:04
    0.00001888 5149052.00000000 22:33:32
    0.00001899 526871.00000000 22:28:18
    0.00001899 526871.00000000 22:28:18
    0.00001899 14451545.00000000 22:28:18
    0.00001899 526871.00000000 22:28:18
    0.00001899 526871.00000000 22:28:18
    0.00001899 526871.00000000 22:28:18
    0.00001899 2681708.00000000 22:27:34
    0.00001900 526415.00000000 22:27:13
    0.00001902 525763.00000000 22:25:12
    0.00001902 525763.00000000 22:25:12
    0.00001902 525763.00000000 22:25:12
    0.00001902 525763.00000000 22:25:12
    0.00001902 525763.00000000 22:25:12
    0.00001908 17085500.00000000 22:23:15
    0.00001905 141409474.00000000 22:14:16
    0.00001907 525763.00000000 22:13:52
    0.00001907 525763.00000000 22:13:52
    0.00001907 525763.00000000 22:13:52
    0.00001907 525763.00000000 22:13:52
    0.00001907 525763.00000000 22:13:52
    0.00001907 14457085.00000000 22:13:52
    0.00001905 116654800.00000000 22:13:37
    0.00001903 77269417.00000000 22:13:10
    0.00001903 289172883.00000000 22:13:09
    0.00001902 5283557.00000000 22:13:05
    0.00001902 7661158.00000000 22:13:05
    0.00001903 882781500.00000000 22:13:05
    0.00001908 5093834.00000000 22:11:36
    0.00001913 9208974.00000000 22:09:03
    0.00001932 5165289.00000000 21:57:20
    0.00001936 5159180.00000000 21:54:12
    0.00001931 6462503.00000000 21:52:21
    0.00001932 2602785.00000000 21:39:40
    0.00001936 5013193.00000000 21:39:17
    0.00001935 2000000.00000000 21:39:10
    0.00001937 5162622.00000000 21:39:01
    0.00001937 7519285.00000000 21:35:21
    0.00001940 1074664616.00000000 21:35:21
    0.00001940 5185714.00000000 21:35:21
    0.00001940 159449368.00000000 21:35:21
    0.00001939 2572952.00000000 21:30:25
    0.00001926 5039788.00000000 21:25:07
    0.00001936 5419922.00000000 21:23:04
    0.00001941 53845884.00000000 21:22:26
    0.00001939 30750200.00000000 21:22:24
    0.00001929 18351500.00000000 21:17:39
    0.00001929 201501449.00000000 21:17:34
    0.00001929 169629624.00000000 21:17:34
    0.00001929 1222256.00000000 21:17:29
    0.00001925 800000.00000000 21:17:05
    0.00001926 2000000.00000000 21:10:40
    0.00001920 3838114.00000000 21:09:28
    0.00001919 1039907.00000000 21:03:46
    0.00001923 567696.00000000 20:52:24
    0.00001923 1037765.00000000 20:51:58
    0.00001928 1037484.00000000 20:50:33
    0.00001924 876151.00000000 20:47:01
    0.00001923 520563.00000000 20:42:55
    0.00001923 520563.00000000 20:42:55
    0.00001923 44729372.00000000 20:42:55
    0.00001923 520563.00000000 20:42:55
    0.00001923 520563.00000000 20:42:55
    0.00001923 520563.00000000 20:42:55
    0.00001921 3343515.00000000 20:37:54
    0.00001922 100668705.00000000 20:37:54
    0.00001918 79352929.00000000 20:37:08
    0.00001918 24692936.00000000 20:37:08
    0.00001927 18351500.00000000 20:33:58
    0.00001927 14107468.00000000 20:33:57
    0.00001927 4244032.00000000 20:33:57
    0.00001930 51700029.00000000 20:33:29
    0.00001929 6517600.00000000 20:32:59
    0.00001928 6000000.00000000 20:32:09
    0.00001933 5090166.00000000 20:31:35
    0.00001933 517867.00000000 20:31:21
    0.00001933 517867.00000000 20:31:21
    0.00001933 517867.00000000 20:31:21
    0.00001933 517867.00000000 20:31:21
    0.00001933 517867.00000000 20:31:21
    0.00001933 45015431.00000000 20:31:21
    0.00001934 517599.00000000 20:31:06
    0.00001935 517599.00000000 20:31:06
    0.00001935 517599.00000000 20:31:06
    0.00001935 517599.00000000 20:31:06
    0.00001935 13532614.00000000 20:31:06
    0.00001935 517599.00000000 20:31:06
    0.00001938 10333934.00000000 20:27:49
    0.00001938 73405200.00000000 20:27:49
    Abmelden
    AAA
    Hilfe
    🙂 🤣 😎 🤗 😛 😉 😜 🤑 🤔 😑 😴 😕 🙃 😲 😇 🙁 😢 😬 😟 😠 🕺 🏃 💪 ✌ 👌 👍 👎 👏 👋 🤝 🍺 🍻 🐋 🐟 🦈 🗽 🚄 ✈ 🛑 🚀 🏦 🌚 ⭐ 🌞 ⚡ 🏆 💰 💲 🔨 ❓ ❗ 💯 🔶 🏁
    ☺
    Anmelden oder Registrieren zum Chatten
    24 Stunden
    Veränderung
    +8.57%
    Volumen
    62,656,451,232
    Hoch
    0.00001983
    Tief
    0.00001738
    7 Tage
    Veränderung
    -5.18%
    Volumen
    394,743,887,646
    Hoch
    0.00002077
    Tief
    0.00001723
    30 Tage
    Veränderung
    +27.33%
    Volumen
    1,648,466,998,499
    Hoch
    0.00002350
    Tief
    0.00001325
    DOGE, SHIB, PEPE, or Something Else: Which Meme Coin Can Make History in September? (3 AIs Weigh In)
    "DOGE remains the most likely to record the largest move in dollar terms and lead the entire sector," ChatGPT stated.
    cryptopotato.com
    Sept 3, 2026 00:41
    Pepe price rallies 25% as whale demand and futures interest surge
    Key takeaways Pepe has gained 25% this week, including a combined 22% advance over the previous two days. Seven whale transactions worth more than $1 million each occurred Thursday, the highest...
    coinjournal.net
    Aug 21, 2026 08:41
    PEPE Supply on Exchanges Just Took a Massive Hit – What’s Next?
    A drop in PEPE exchange balances has added to bullish expectations despite muted trader interest.
    cryptopotato.com
    Aug 6, 2026 20:02
    PEPE Exchange Outflows Hit Nearly 2-Year High as Whales Accumulate
    Pepe (PEPE) recorded its largest single-day exchange outflow since November 2024, with 4.54 trillion tokens leaving trading platforms, signaling that holders are moving supply away from immediate...
    beincrypto.com
    Aug 6, 2026 04:57
    Meme Coin Based on White House Shooter Conspiracy Rallies 320%
    $HENRY surged 300% after a 2023 Pepe tweet appeared to name the White House shooter, fueling a viral time-travel meme. The post Meme Coin Based on White House Shooter Conspiracy Rallies 320%...
    beincrypto.com
    Apr 27, 2026 16:11
    PEPE surges 4% as market sentiment improves, eyes Key resistance breakout
    Key takeaways Pepe extends gains on Wednesday, stretching its rally from the 50-day EMA. Derivatives data show heightened retail activity as risk-on sentiment returns to the market. Pepe (PEPE) is...
    coinjournal.net
    Apr 22, 2026 11:44
    Why The PEPE Price Could Stage A 55X Rally To Reach New $0.0001 ATH
    The PEPE price has now started to edge back into bullish conversations after the recent inflows into the crypto market. The last time PEPE’s weekly chart printed the kind of structure now...
    newsbtc.com
    Apr 21, 2026 15:30
    Pepe (PEPE) surges 9%, drawing interest from whales
    Key takeaways PEPE is up 9% in the last 24 hours, making it one of the best performers among the top 50 cryptocurrencies by market cap. The rally comes amid renewed interest from whales and retail...
    coinjournal.net
    Apr 16, 2026 07:40
    Murad Says SPX6900 (SPX) Is Primed for a Rally — Is He Right This Time?
    Crypto influencer Murad Mahmudov claims SPX6900 (SPX) is stabilizing at the same market cap level where Dogecoin (DOGE) and Pepe (PEPE) consolidated before their explosive rallies. The...
    beincrypto.com
    Apr 5, 2026 21:36
    The Shiba Inu Of This Cycle: Analyst Shares Why It Is Better To Buy PEPE Now
    In the bull market cycle of 2021-2022, the Shiba Inu meme coin made waves in a way that changed the face of meme coins forever. This came after Dogecoin’s initial 36,000% rally, and Shiba Inu...
    newsbtc.com
    Apr 4, 2026 07:30
    PEPE Explodes by 18% Amid Altcoin Rally, BTC Tapped $74K: Market Watch
    The frog-themed meme coin is today's biggest gainer, followed by TAO, DOT, and BONK.
    cryptopotato.com
    Mar 16, 2026 10:56
    Should PEPE traders brace for volatility as short squeeze potential builds?
    The memecoin market has seen its collective market capitalization drop by 48% over the past year, and 6.9% over the past month, according to CoinMarketCap. According to Glassnode, the memecoin...
    ambcrypto.com
    Mar 7, 2026 18:00
    Geben Sie einfach das Kommando im Chat ein. Ersetzen Sie dabei nick1 durch den jeweiligen Nick.
    • /ignore nick1 Einen Chat-User ignorieren
    • /unignore nick1 Einen Chat-User nicht mehr ignorieren
    • /ignorelist Ignorierte Chat-User anzeigen